Vorticity
16 14 11 10 11 13 14 14 14 13 13 12 11 10 10 11 13 14 14 13 12 11 10 8 7 7 6 6 7 8 10 9 8 11 10 7 5 6 9 14 14 8 4 3 4 4 4 6 6 6 5 6 7 8 9 7 6 7 6 6 6 4 6 6 6 6 6 7 8 8 6 3 5 7 6 5 5 6 5 6 7 7 9 10 10 10 11 12
13 12 11 12 14 15 14 14 13 12 11 11 11 12 13 14 14 13 13 14 15 16 13 9 8 8 7 7 9 10 10 8 10 11 9 7 8 11 13 11 7 4 5 5 6 6 7 8 7 7 8 8 8 7 9 9 7 7 5 5 7 5 6 7 7 8 7 8 9 9 7 3 7 8 6 6 7 7 6 7 8 9 11 10 9 9 10 11
14 14 14 14 14 14 13 13 11 11 11 12 14 14 13 11 10 10 10 13 18 25 25 19 14 13 13 14 14 12 11 10 10 10 8 9 11 13 10 6 5 6 7 7 8 9 9 9 8 8 8 7 6 5 4 6 6 7 7 6 7 6 6 8 7 8 9 9 10 11 7 5 8 8 7 7 8 7 7 7 8 9 9 8 9 10 11 10
15 14 13 12 12 12 11 11 11 12 14 13 12 10 9 8 8 9 11 16 23 31 36 33 28 24 21 19 17 14 11 10 10 10 11 12 12 9 6 5 6 7 9 10 9 8 8 9 7 5 5 5 5 6 5 4 4 5 7 7 7 7 6 7 7 8 10 9 11 11 6 6 9 8 8 8 7 7 7 8 8 9 9 9 10 10 10 8
12 11 11 12 12 12 11 12 13 13 12 9 8 7 7 6 8 12 17 21 25 31 36 36 34 29 24 19 15 12 10 11 12 12 11 9 7 5 5 6 8 9 9 8 6 6 6 7 6 4 4 4 4 5 5 4 4 5 7 7 6 7 7 6 7 8 9 9 11 11 6 7 9 8 8 8 7 7 7 8 9 9 9 9 10 10 9 9
12 12 13 13 12 12 12 12 11 9 7 6 7 6 6 8 13 18 21 22 22 23 23 23 22 19 16 13 11 11 11 12 10 9 7 5 5 6 7 8 9 9 7 7 6 5 4 4 4 4 4 4 5 5 5 4 5 7 6 7 7 8 7 5 6 8 8 8 11 11 6 7 9 8 9 8 7 8 7 8 8 9 9 9 9 10 10 10
13 13 13 12 11 11 10 8 7 6 6 7 7 7 9 13 16 18 18 17 15 14 12 11 11 10 10 9 10 11 10 8 7 6 6 6 8 8 8 8 8 7 7 6 6 5 4 3 3 5 4 4 5 5 6 6 6 7 5 6 7 8 6 4 6 7 6 6 11 11 6 7 9 8 9 8 8 7 7 8 7 8 9 9 9 9 9 9
12 11 11 10 9 7 7 7 7 7 7 7 9 11 13 15 15 15 13 12 12 11 10 10 9 9 9 9 9 7 6 6 6 7 7 8 9 8 8 8 8 8 8 5 4 4 3 4 4 4 3 3 5 5 7 7 6 7 6 5 6 8 7 5 5 6 6 5 10 12 6 8 10 8 9 8 7 7 7 8 6 7 8 8 8 7 8 7
10 9 8 7 7 7 7 7 7 8 9 10 11 12 13 13 12 11 10 10 10 10 9 9 8 7 7 7 7 5 6 8 9 8 8 9 8 8 8 8 8 7 6 4 3 4 5 6 5 5 5 4 4 3 5 6 6 6 5 4 5 6 6 7 6 5 6 4 8 12 6 8 10 8 9 8 7 7 7 7 6 7 7 7 7 6 6 5
8 7 7 7 8 7 7 8 8 10 10 10 10 10 11 10 10 9 8 8 8 7 7 8 7 5 5 6 8 8 7 9 9 8 8 8 7 7 6 5 5 4 3 3 4 5 6 6 5 6 6 5 5 4 3 3 4 4 4 5 4 4 5 8 7 4 6 4 7 12 7 8 10 8 10 9 7 7 7 7 6 6 7 7 6 6 5 3
8 8 8 7 7 7 8 8 9 9 9 9 10 10 10 10 9 8 8 8 7 8 8 8 6 5 8 9 9 9 8 9 9 8 8 7 7 6 4 4 4 4 3 4 5 6 5 5 5 4 5 5 4 3 3 3 3 3 4 5 3 3 3 6 8 5 6 4 6 12 8 8 9 9 11 10 8 8 7 7 6 6 7 6 6 5 4 3
7 7 6 6 7 8 8 9 9 9 9 9 10 10 10 9 9 9 9 9 9 10 9 8 7 8 10 10 10 9 8 9 8 7 7 6 5 5 4 4 5 6 6 7 8 6 5 5 4 4 6 5 3 2 2 2 3 2 4 5 3 4 2 3 8 6 6 4 6 11 8 7 10 10 11 10 10 8 7 7 6 6 7 6 6 5 5 4
6 6 7 8 8 9 9 9 9 9 9 10 10 10 9 9 9 10 9 8 9 10 8 8 8 8 10 10 9 8 7 7 7 6 6 5 4 5 5 5 5 5 6 8 7 6 6 6 5 4 5 5 5 5 3 2 4 3 2 3 3 5 4 3 6 6 5 3 6 11 8 7 9 10 10 10 10 9 8 8 7 7 7 7 7 6 6 4
7 8 9 9 10 10 10 10 10 10 11 11 11 9 9 9 9 9 7 8 8 7 7 9 9 9 9 8 6 7 7 6 6 6 4 5 5 5 6 6 6 6 7 7 5 6 7 7 5 3 3 4 5 5 5 4 5 5 3 2 2 4 5 4 4 5 5 1 4 10 7 7 9 9 10 10 12 10 8 9 7 8 8 7 7 6 6 4
9 10 11 11 12 12 13 12 12 12 11 10 9 9 9 10 9 8 8 8 8 7 7 8 10 9 6 5 5 6 6 5 5 5 4 5 6 6 6 6 6 6 7 6 5 6 6 6 6 4 3 3 3 2 3 3 4 5 4 2 2 2 3 4 3 4 7 2 2 8 6 7 10 9 9 10 12 10 8 9 8 8 8 8 8 7 6 6
12 13 14 14 13 13 13 13 12 11 10 9 9 11 11 11 10 9 9 8 8 9 8 8 8 6 5 5 5 4 5 5 5 5 6 6 6 5 5 5 5 5 7 5 4 5 4 4 5 4 3 3 3 3 2 2 2 3 3 4 3 1 1 3 3 2 7 5 2 5 5 6 10 10 9 10 12 12 9 9 8 8 8 7 8 8 8 8
12 14 14 14 13 12 12 11 11 10 10 11 12 12 12 10 10 9 8 8 8 8 8 7 5 3 5 5 4 5 6 5 5 5 6 6 4 4 4 4 5 5 5 4 5 5 5 5 4 3 3 3 2 3 3 2 2 1 1 2 3 3 1 2 4 2 5 7 3 3 3 4 9 9 8 10 12 12 11 10 9 8 7 8 8 9 9 9
12 12 12 12 12 12 12 10 10 11 11 11 12 11 10 9 9 9 8 8 8 7 6 6 3 3 5 5 5 6 5 4 5 5 5 4 4 4 4 4 4 4 4 4 5 6 5 4 3 3 3 2 2 2 2 2 3 2 1 1 2 3 2 1 3 2 3 7 4 4 4 3 7 8 6 9 12 12 11 10 10 9 8 8 8 9 9 9
10 11 11 10 10 10 11 10 9 10 10 10 10 9 9 9 8 8 7 7 7 6 6 4 3 6 8 7 7 6 4 5 5 4 3 3 3 4 4 5 5 6 6 5 5 5 4 3 2 2 2 3 3 3 2 2 2 3 3 2 2 2 3 1 2 2 2 4 4 5 6 4 6 8 6 9 11 11 10 10 11 10 9 9 9 10 10 9
9 9 10 9 8 9 8 8 7 7 8 9 8 8 8 7 5 5 5 4 5 4 4 4 5 8 7 5 5 4 4 4 3 3 2 2 2 2 3 4 5 6 7 6 5 5 4 3 2 2 2 2 2 2 2 3 2 2 3 3 2 2 3 3 2 1 1 2 2 4 7 6 7 8 7 8 10 11 11 10 11 11 10 10 9 9 10 10
9 9 9 8 7 7 7 6 6 7 8 8 7 6 5 4 3 4 3 2 3 3 3 4 5 5 4 4 4 4 4 4 3 3 2 2 2 1 3 4 5 6 6 6 5 6 5 3 3 2 2 2 2 2 1 1 1 2 2 2 3 2 2 3 3 2 2 3 1 2 6 6 8 9 7 8 8 9 11 11 11 11 11 11 10 9 10 9
9 8 7 7 6 6 6 6 7 8 7 6 6 5 3 3 4 4 3 3 4 4 4 4 4 3 4 4 4 4 3 3 3 3 2 2 1 2 2 3 5 6 6 6 5 5 4 4 4 3 3 3 3 4 3 2 1 2 3 2 3 3 3 4 4 2 2 3 2 3 6 6 9 9 6 8 8 8 10 12 11 11 11 12 10 10 9 9
8 7 6 6 6 6 7 7 8 7 6 6 5 4 3 3 3 3 4 5 3 3 4 3 3 3 3 3 3 3 2 3 4 4 4 4 3 2 1 2 5 6 6 6 5 4 3 4 5 5 4 3 3 3 4 4 3 2 3 4 3 4 4 4 5 4 2 3 3 4 6 6 9 8 4 8 9 8 9 10 11 11 11 12 10 9 9 9
6 6 6 6 7 9 9 9 8 7 6 7 4 3 4 4 4 3 3 3 1 2 3 3 3 3 4 4 5 5 4 4 4 3 3 3 3 2 2 3 4 5 6 6 5 4 3 3 4 4 4 4 4 3 2 3 4 2 2 4 3 3 4 4 5 5 4 4 3 3 6 7 8 7 4 7 9 8 8 8 10 10 10 11 11 9 8 9
6 7 8 8 9 9 8 8 8 7 6 5 4 4 4 3 3 4 5 4 2 2 2 2 3 3 5 5 5 5 4 4 4 3 3 2 2 2 3 3 4 5 6 5 5 4 4 4 3 3 4 3 3 3 3 2 2 2 2 2 3 3 4 4 4 5 5 7 4 2 6 8 6 6 7 8 7 6 7 8 9 9 10 10 10 10 8 8
7 7 8 8 7 7 8 8 7 6 5 4 4 4 3 3 3 3 5 4 1 1 1 1 2 3 5 5 4 5 4 4 4 5 5 3 4 4 4 4 4 5 5 5 5 4 3 4 4 4 3 3 4 3 3 3 3 3 2 2 3 3 3 4 5 4 4 6 5 1 5 8 5 5 9 8 6 5 5 8 10 9 10 10 10 10 9 8
6 6 6 6 7 8 8 7 6 5 5 4 3 3 3 2 2 2 3 4 4 4 3 3 4 4 5 4 5 5 4 4 4 5 5 5 5 5 4 4 4 4 5 5 5 5 3 2 4 4 3 3 4 4 3 3 3 3 4 2 3 3 2 3 5 4 3 5 6 3 3 8 6 4 8 9 7 6 4 6 10 9 9 10 10 10 9 9
5 5 5 7 7 8 6 5 4 4 3 2 1 1 2 2 3 4 5 6 6 5 5 4 4 4 3 3 4 4 4 4 5 5 5 5 5 5 3 3 4 5 5 4 4 6 5 3 2 3 4 3 2 3 3 4 4 3 4 3 2 4 3 3 5 4 4 4 5 4 2 8 9 3 6 9 6 6 6 6 10 10 8 9 10 10 9 9
6 6 7 8 7 6 5 4 2 2 1 1 2 3 4 5 6 7 7 7 5 4 4 4 3 4 4 4 4 4 4 5 6 6 5 5 4 4 3 2 4 5 5 5 4 4 4 5 4 1 3 4 2 3 3 3 4 3 4 4 3 3 3 4 4 3 4 4 4 4 3 7 8 2 4 8 5 6 9 8 10 11 8 7 10 10 10 10
7 6 6 6 5 5 4 2 2 3 3 2 3 4 5 6 6 6 6 6 6 5 5 5 4 5 5 5 5 5 5 6 6 6 6 6 4 3 3 3 4 5 4 6 5 4 3 3 5 3 2 2 3 4 4 4 4 3 4 4 3 3 3 5 4 2 5 5 3 4 4 5 7 5 5 7 5 6 9 9 10 11 9 7 8 11 10 10
6 5 6 5 5 4 3 3 3 2 2 2 4 5 5 5 3 3 5 4 4 4 5 5 4 4 5 5 5 5 5 5 5 5 5 5 4 3 3 4 5 5 5 6 5 5 3 1 2 4 3 2 2 3 3 3 4 4 4 4 3 3 3 4 3 2 5 6 3 5 6 4 6 7 6 6 5 7 9 8 11 12 10 8 8 11 11 10
6 6 7 6 5 4 3 5 3 2 4 5 5 5 3 3 2 3 4 3 2 3 3 3 3 3 4 4 4 4 5 4 4 5 5 5 4 3 3 5 5 5 5 7 5 4 4 3 2 2 3 3 2 2 3 3 3 4 4 4 4 3 3 3 2 1 5 6 4 6 6 2 5 8 7 5 4 8 9 7 9 10 10 10 8 11 12 10
7 8 9 8 6 6 7 7 5 7 7 4 5 4 2 4 4 4 5 3 3 3 3 3 3 3 3 3 4 4 4 4 4 5 5 5 4 4 4 5 6 6 5 6 6 5 4 4 3 3 3 3 2 2 2 2 2 4 4 3 4 4 3 4 3 2 3 4 4 7 6 1 6 11 7 4 3 7 10 7 9 10 10 12 8 10 14 11
6 7 8 8 7 8 8 7 7 7 5 4 6 3 2 5 4 3 4 3 3 3 3 3 3 3 4 4 4 4 4 4 4 4 5 5 5 4 4 5 6 7 6 5 6 5 3 3 3 3 3 3 3 3 2 2 2 2 3 3 4 4 4 4 4 2 2 4 4 7 7 0 5 11 7 4 2 5 10 8 9 9 9 13 9 8 14 12
4 4 7 7 6 6 6 5 6 5 4 6 3 -0 4 5 1 2 4 3 3 4 4 4 4 4 4 3 4 5 5 5 4 5 6 5 5 5 4 5 6 7 7 6 6 5 3 3 3 2 2 3 3 3 2 3 3 2 2 4 3 3 5 3 3 3 3 4 3 6 7 -0 2 9 6 3 2 4 9 9 9 9 9 14 11 7 12 13
4 3 6 6 5 5 5 4 5 4 6 5 -0 3 10 6 1 3 5 5 5 5 5 5 5 5 5 4 5 5 5 5 5 5 6 4 5 5 4 5 6 7 8 6 6 5 3 4 4 1 3 4 3 3 3 3 3 3 3 4 3 3 4 2 2 4 3 3 3 4 8 3 1 9 5 2 6 6 8 9 9 10 9 12 13 8 11 14
5 4 5 6 5 5 4 4 4 4 6 4 0 7 11 5 3 5 5 6 6 5 6 7 6 5 5 6 6 5 6 6 6 6 6 5 6 6 5 6 6 8 9 7 6 6 3 4 4 2 2 3 3 3 4 3 3 4 3 3 4 3 4 2 4 5 3 5 3 1 11 10 1 8 7 3 8 7 7 10 9 10 9 11 14 10 10 13
4 5 4 4 4 5 5 4 4 5 8 5 2 6 6 2 3 4 4 5 4 5 5 4 5 5 5 6 6 5 6 7 7 6 6 6 6 6 6 7 6 9 9 6 6 7 5 4 4 4 2 1 2 2 3 4 3 5 4 3 4 3 4 3 5 6 3 6 5 0 16 17 -1 5 10 4 7 7 5 9 8 9 8 9 14 12 11 14
4 5 4 4 4 3 4 4 3 4 5 4 3 5 4 3 4 3 2 3 2 3 3 2 4 5 4 5 5 4 5 6 6 6 6 6 6 6 7 7 8 9 8 6 5 5 5 4 4 5 3 1 2 2 2 4 5 6 4 4 4 2 4 3 4 6 2 6 8 -1 14 22 1 1 10 3 5 7 4 7 8 8 8 10 14 12 12 16
4 3 2 4 4 3 4 4 2 2 2 2 4 4 3 3 4 3 4 4 3 3 3 3 4 4 4 5 4 5 6 6 6 6 7 7 7 7 7 8 8 8 7 7 6 4 4 3 2 4 6 5 4 3 3 4 5 6 4 5 6 3 5 4 3 5 1 5 9 -4 8 27 7 -4 5 2 5 8 5 6 8 9 8 10 15 12 11 16
6 5 2 4 5 4 5 5 3 3 3 3 4 3 3 3 4 5 6 6 6 7 6 5 5 5 5 5 5 6 7 6 6 7 7 6 6 6 7 8 8 7 7 6 6 5 4 3 2 3 5 5 4 4 5 5 5 6 6 6 6 4 6 4 3 5 0 4 9 -5 2 22 6 -7 2 5 6 10 6 5 8 10 9 11 16 13 10 14
7 7 5 5 5 6 7 6 5 6 6 6 5 5 5 5 5 5 6 6 8 8 8 8 8 7 6 6 6 7 6 6 7 7 7 6 6 7 8 8 8 7 7 5 5 5 4 4 3 1 2 4 6 6 6 6 4 5 7 6 5 5 4 3 4 5 2 8 10 -4 -3 12 8 -0 4 7 9 11 7 4 8 11 9 10 16 15 11 13
9 8 8 9 9 9 9 9 9 9 9 8 8 9 9 9 9 8 9 9 9 9 8 8 7 6 6 6 7 7 6 6 6 6 6 7 8 8 8 9 8 7 6 4 4 4 4 4 3 1 -0 -0 3 6 6 5 3 4 7 6 6 6 2 3 5 4 5 9 6 -3 -4 8 13 6 3 8 10 10 10 8 9 11 8 9 16 17 13 12
9 8 9 9 9 10 10 11 11 11 11 11 11 11 10 10 10 10 10 10 9 9 8 7 6 6 6 6 6 6 6 6 6 6 7 7 8 8 7 7 7 6 5 4 4 3 3 5 7 6 3 -2 -3 -2 -0 2 1 2 5 5 6 5 2 5 4 2 7 4 0 4 2 5 15 8 3 11 11 8 12 10 7 9 7 8 16 18 12 11
8 7 8 8 8 8 8 9 9 9 10 10 10 9 9 9 9 8 8 8 8 8 7 6 6 6 6 6 6 6 6 6 7 7 7 7 7 7 7 7 6 5 5 4 4 4 2 3 6 8 10 9 7 6 6 5 3 2 4 4 4 2 1 3 2 6 10 -1 -1 12 5 1 15 9 2 11 10 5 11 10 6 9 7 7 16 18 12 9
6 5 5 5 6 5 5 5 5 6 6 6 6 6 6 6 6 5 6 5 5 6 5 6 6 6 7 6 6 7 7 7 8 7 8 7 7 6 5 5 5 4 4 3 3 5 2 0 2 4 6 7 9 11 10 7 6 5 4 4 4 3 1 2 5 10 7 -5 1 16 5 1 16 10 3 12 10 6 12 11 7 9 7 6 15 18 12 8
4 4 4 4 3 3 4 4 4 5 5 4 5 6 5 6 5 5 5 5 5 5 4 5 5 5 6 5 5 6 6 6 7 7 7 6 5 5 4 4 3 3 3 4 3 5 5 2 0 3 3 2 4 6 4 5 7 4 2 6 6 1 0 5 9 9 3 -2 8 16 4 3 17 11 6 14 11 8 14 12 9 11 7 6 14 18 12 8
5 4 5 4 4 5 5 5 5 5 5 4 4 4 4 4 4 3 4 4 4 4 3 4 5 4 5 4 4 5 4 4 5 4 5 5 4 5 4 3 4 4 4 4 4 5 7 5 1 2 2 -1 2 4 2 4 4 2 6 12 7 1 5 9 8 5 4 5 12 12 2 6 18 9 3 11 10 8 14 13 13 15 8 4 15 19 12 8
6 6 7 6 6 7 7 6 6 6 6 6 6 6 5 5 5 4 5 4 4 4 3 2 2 2 2 3 3 3 3 3 2 1 2 2 2 3 3 2 2 2 2 3 3 3 4 5 3 3 3 -2 -1 2 2 2 2 2 9 11 6 5 9 8 6 6 7 8 12 9 1 9 16 5 1 9 8 8 12 10 13 17 5 0 15 21 12 8
6 5 6 6 5 6 6 6 5 5 5 5 5 6 5 5 6 5 5 5 5 5 5 4 4 3 2 2 2 2 2 2 1 1 0 -0 -0 0 1 1 0 1 1 1 2 3 4 5 4 5 6 3 1 2 1 1 2 4 8 9 7 8 8 5 6 8 8 9 11 5 1 9 12 2 1 8 7 9 11 10 17 19 3 -0 15 20 13 9
4 4 4 4 4 4 4 4 4 4 5 4 4 5 4 5 6 5 5 5 5 5 5 5 5 4 4 4 4 3 3 2 2 3 2 1 1 1 2 3 2 3 3 3 4 5 5 7 7 7 8 6 4 5 3 1 2 5 9 12 9 7 5 4 6 8 8 10 10 3 3 12 10 4 5 7 6 9 8 12 23 15 -2 3 16 17 14 11
4 4 4 4 4 5 5 5 5 5 6 6 6 6 5 6 5 5 5 5 5 5 5 5 5 5 5 5 5 5 5 5 5 5 5 5 4 4 4 5 5 6 6 6 7 6 6 8 8 8 7 7 8 8 6 5 5 8 11 11 7 5 6 6 7 8 9 10 8 2 5 11 6 5 9 7 8 9 5 15 27 9 -6 8 17 14 14 11
Height
5766 5768 5771 5773 5775 5777 5778 5780 5782 5783 5784 5785 5786 5787 5788 5788 5789 5789 5789 5790 5790 5790 5791 5792 5793 5795 5796 5798 5800 5802 5803 5805 5806 5807 5809 5810 5811 5812 5813 5813 5814 5815 5816 5817 5817 5818 5818 5818 5818 5818 5818 5818 5818 5818 5817 5817 5816 5815 5814 5813 5813 5812 5811 5810 5809 5807 5806 5804 5803 5802 5800 5798 5796 5794 5792 5790 5788 5786 5783 5781 5779 5777 5775 5772 5771 5769 5767 5765
5768 5770 5772 5774 5776 5778 5779 5781 5782 5784 5785 5786 5787 5788 5788 5789 5789 5789 5790 5790 5789 5790 5790 5791 5793 5794 5796 5798 5800 5802 5804 5805 5807 5808 5809 5810 5812 5813 5813 5814 5815 5817 5817 5818 5819 5819 5819 5819 5820 5819 5819 5819 5818 5818 5818 5817 5816 5815 5814 5814 5813 5813 5812 5810 5809 5808 5806 5804 5803 5801 5799 5797 5795 5793 5791 5788 5786 5784 5782 5780 5777 5775 5773 5771 5769 5767 5765 5763
5770 5772 5774 5775 5777 5779 5780 5782 5783 5785 5786 5787 5788 5789 5789 5790 5790 5790 5790 5789 5789 5789 5789 5790 5792 5794 5796 5799 5801 5803 5804 5806 5808 5809 5810 5811 5812 5813 5814 5815 5817 5818 5819 5820 5820 5820 5821 5821 5821 5820 5820 5819 5819 5819 5818 5817 5816 5816 5815 5815 5814 5813 5812 5810 5809 5808 5806 5804 5803 5801 5799 5797 5794 5792 5790 5787 5785 5783 5780 5778 5776 5773 5771 5770 5768 5765 5763 5761
5772 5774 5775 5777 5779 5780 5782 5783 5784 5786 5787 5788 5789 5790 5790 5790 5790 5790 5790 5789 5789 5788 5788 5790 5792 5794 5797 5799 5801 5804 5805 5807 5809 5810 5811 5812 5813 5815 5816 5817 5819 5820 5821 5821 5822 5822 5822 5822 5822 5821 5820 5820 5819 5819 5819 5818 5817 5816 5816 5815 5814 5813 5812 5810 5809 5807 5805 5804 5802 5800 5798 5796 5793 5791 5789 5786 5784 5781 5779 5777 5774 5772 5770 5768 5765 5763 5761 5760
5774 5776 5777 5779 5780 5782 5783 5785 5786 5787 5789 5790 5790 5791 5791 5791 5791 5791 5791 5790 5789 5789 5789 5790 5793 5795 5798 5801 5803 5805 5807 5808 5810 5811 5813 5814 5816 5818 5819 5820 5821 5822 5823 5823 5823 5823 5823 5822 5822 5822 5821 5821 5820 5820 5819 5818 5818 5817 5817 5816 5815 5813 5811 5810 5809 5807 5805 5804 5802 5800 5797 5795 5793 5790 5788 5785 5782 5780 5778 5776 5773 5771 5768 5766 5763 5762 5760 5758
5777 5778 5780 5781 5782 5784 5785 5787 5788 5789 5790 5791 5792 5792 5793 5793 5793 5793 5792 5791 5791 5791 5792 5794 5796 5798 5801 5803 5805 5807 5808 5810 5812 5814 5816 5817 5819 5820 5821 5822 5822 5823 5824 5824 5824 5824 5823 5823 5823 5823 5822 5821 5821 5821 5819 5819 5819 5818 5817 5816 5814 5812 5811 5810 5809 5807 5805 5803 5801 5799 5796 5794 5792 5789 5787 5784 5782 5779 5777 5775 5772 5770 5767 5764 5762 5760 5759 5757
5779 5781 5782 5783 5785 5786 5788 5789 5790 5791 5792 5793 5794 5794 5795 5795 5795 5795 5794 5794 5794 5795 5796 5798 5800 5802 5804 5806 5808 5810 5811 5813 5815 5817 5818 5819 5820 5821 5822 5823 5823 5824 5824 5824 5824 5824 5824 5824 5825 5824 5823 5823 5822 5822 5820 5820 5819 5818 5817 5816 5814 5812 5811 5810 5808 5806 5804 5802 5800 5798 5795 5793 5790 5788 5786 5784 5781 5779 5776 5774 5771 5769 5766 5763 5761 5759 5757 5755
5782 5783 5785 5786 5788 5789 5790 5791 5792 5793 5794 5795 5796 5796 5797 5797 5797 5797 5797 5797 5798 5799 5800 5802 5804 5805 5807 5809 5811 5812 5814 5816 5817 5819 5820 5821 5822 5823 5823 5824 5824 5824 5825 5825 5825 5825 5825 5825 5826 5825 5824 5824 5823 5822 5822 5821 5820 5819 5817 5816 5814 5813 5812 5810 5808 5805 5803 5801 5799 5796 5794 5792 5790 5788 5785 5783 5780 5778 5776 5773 5770 5767 5764 5762 5760 5757 5755 5753
5785 5787 5788 5789 5790 5791 5792 5793 5794 5795 5796 5797 5798 5799 5799 5799 5799 5799 5800 5801 5802 5803 5804 5806 5807 5809 5811 5813 5814 5815 5816 5818 5820 5821 5822 5822 5823 5824 5825 5825 5825 5825 5826 5826 5827 5827 5827 5827 5826 5826 5825 5825 5824 5823 5822 5821 5820 5819 5818 5816 5815 5814 5812 5809 5807 5805 5802 5800 5798 5796 5794 5792 5790 5787 5785 5782 5779 5777 5774 5771 5769 5766 5763 5761 5758 5756 5754 5751
5789 5790 5791 5792 5793 5794 5795 5796 5797 5798 5799 5800 5801 5801 5802 5802 5802 5803 5803 5804 5806 5807 5808 5810 5811 5812 5814 5816 5817 5818 5819 5821 5822 5823 5824 5825 5825 5826 5826 5826 5827 5827 5827 5828 5828 5828 5828 5827 5827 5826 5826 5826 5825 5824 5823 5822 5821 5820 5818 5817 5816 5814 5812 5809 5807 5805 5803 5800 5798 5796 5794 5792 5789 5787 5784 5781 5778 5776 5773 5770 5768 5765 5763 5760 5757 5755 5752 5749
5792 5793 5794 5795 5796 5797 5798 5799 5800 5801 5802 5802 5803 5804 5805 5805 5806 5806 5807 5808 5809 5811 5812 5814 5815 5816 5817 5819 5820 5821 5822 5823 5824 5825 5826 5827 5827 5827 5828 5828 5828 5828 5829 5829 5829 5829 5829 5828 5828 5827 5826 5826 5826 5824 5824 5823 5821 5820 5819 5817 5816 5814 5811 5809 5807 5805 5803 5800 5798 5796 5793 5791 5788 5785 5783 5780 5777 5775 5772 5770 5767 5765 5762 5759 5756 5753 5751 5748
5795 5796 5797 5798 5799 5800 5801 5802 5803 5803 5804 5805 5806 5807 5808 5808 5809 5810 5811 5812 5813 5815 5816 5818 5819 5820 5821 5823 5823 5824 5825 5826 5827 5828 5828 5829 5829 5829 5829 5830 5830 5830 5830 5831 5831 5830 5830 5829 5829 5828 5827 5826 5826 5825 5824 5823 5822 5820 5819 5817 5815 5813 5811 5809 5807 5805 5803 5801 5798 5795 5792 5790 5788 5785 5782 5780 5777 5774 5772 5769 5766 5764 5761 5758 5755 5752 5749 5746
5798 5799 5800 5801 5802 5803 5803 5804 5805 5806 5807 5808 5809 5810 5811 5812 5812 5813 5814 5816 5817 5818 5820 5821 5822 5824 5825 5826 5826 5827 5828 5828 5829 5829 5830 5830 5830 5831 5831 5832 5832 5832 5832 5832 5832 5831 5830 5830 5830 5829 5828 5827 5826 5826 5825 5824 5822 5821 5819 5817 5815 5813 5811 5809 5807 5805 5803 5800 5797 5794 5792 5790 5788 5785 5782 5779 5776 5773 5771 5768 5765 5762 5760 5757 5754 5751 5748 5745
5801 5802 5803 5804 5805 5806 5806 5807 5808 5809 5810 5811 5812 5813 5814 5815 5816 5817 5818 5819 5820 5822 5823 5824 5826 5827 5828 5828 5829 5829 5830 5830 5831 5831 5831 5832 5832 5832 5833 5834 5834 5834 5833 5833 5833 5832 5831 5831 5831 5830 5829 5828 5827 5827 5825 5824 5823 5821 5819 5818 5815 5813 5811 5809 5807 5804 5802 5799 5796 5794 5792 5790 5787 5784 5781 5778 5775 5772 5769 5767 5764 5761 5759 5756 5753 5750 5747 5745
5805 5806 5807 5807 5808 5809 5810 5811 5812 5812 5813 5814 5815 5817 5818 5819 5820 5821 5822 5823 5824 5825 5826 5827 5829 5829 5830 5831 5832 5831 5832 5833 5833 5833 5833 5834 5834 5834 5835 5835 5835 5835 5835 5834 5833 5833 5832 5832 5832 5831 5830 5828 5828 5827 5826 5824 5823 5821 5819 5817 5815 5813 5811 5809 5806 5803 5801 5798 5796 5794 5791 5789 5787 5784 5781 5777 5774 5771 5768 5766 5763 5760 5757 5755 5752 5749 5746 5744
5808 5809 5810 5811 5812 5812 5813 5814 5815 5816 5817 5818 5819 5820 5821 5822 5823 5824 5825 5826 5827 5829 5830 5831 5831 5831 5832 5834 5834 5834 5834 5835 5835 5835 5836 5836 5836 5836 5836 5836 5836 5836 5836 5835 5834 5834 5834 5833 5833 5832 5830 5829 5828 5827 5826 5824 5822 5821 5819 5817 5815 5813 5810 5808 5805 5803 5801 5798 5796 5793 5791 5789 5786 5783 5780 5776 5773 5770 5768 5765 5762 5759 5756 5753 5750 5748 5745 5742
5812 5813 5814 5814 5815 5816 5817 5817 5818 5819 5820 5822 5823 5824 5825 5826 5827 5828 5829 5830 5831 5832 5833 5834 5833 5833 5835 5836 5836 5836 5837 5836 5837 5837 5838 5838 5838 5837 5838 5838 5838 5837 5837 5836 5836 5835 5835 5834 5833 5832 5831 5830 5829 5827 5826 5824 5822 5820 5818 5817 5815 5812 5810 5807 5805 5803 5801 5798 5795 5792 5790 5788 5785 5782 5779 5776 5773 5770 5767 5764 5761 5758 5755 5752 5749 5746 5743 5740
5815 5816 5817 5818 5819 5820 5821 5821 5822 5823 5825 5825 5827 5828 5829 5830 5831 5833 5833 5834 5835 5836 5836 5835 5835 5836 5838 5839 5839 5839 5838 5839 5839 5839 5839 5839 5839 5839 5839 5839 5839 5838 5838 5837 5837 5837 5836 5835 5834 5833 5831 5830 5829 5828 5826 5824 5822 5820 5818 5816 5814 5812 5809 5807 5805 5803 5800 5797 5794 5791 5789 5786 5783 5780 5778 5775 5771 5768 5766 5763 5759 5756 5753 5750 5747 5744 5741 5738
5819 5820 5821 5822 5823 5824 5825 5826 5826 5828 5829 5830 5831 5832 5833 5834 5835 5837 5838 5838 5839 5839 5838 5837 5837 5840 5841 5841 5841 5841 5841 5841 5841 5841 5841 5841 5841 5841 5840 5840 5840 5839 5839 5838 5838 5837 5837 5836 5834 5833 5832 5831 5829 5828 5826 5824 5822 5820 5818 5816 5814 5812 5809 5807 5805 5802 5799 5796 5793 5791 5788 5785 5782 5780 5777 5773 5770 5767 5764 5761 5758 5755 5752 5749 5745 5742 5739 5735
5823 5824 5825 5826 5827 5828 5829 5830 5831 5832 5832 5834 5835 5835 5837 5837 5838 5840 5841 5841 5842 5841 5840 5840 5841 5843 5843 5843 5843 5843 5844 5844 5844 5844 5843 5843 5843 5843 5842 5841 5841 5840 5840 5840 5838 5837 5837 5836 5835 5833 5832 5831 5830 5828 5826 5824 5822 5820 5818 5816 5814 5811 5809 5807 5804 5801 5798 5795 5792 5790 5787 5785 5782 5779 5775 5772 5769 5766 5763 5760 5757 5754 5750 5747 5744 5740 5736 5733
5827 5828 5829 5830 5831 5832 5833 5834 5835 5836 5836 5837 5838 5839 5840 5840 5841 5843 5843 5844 5845 5844 5843 5844 5845 5845 5845 5845 5846 5846 5846 5846 5846 5846 5845 5845 5845 5844 5843 5843 5841 5841 5840 5840 5839 5838 5837 5836 5835 5833 5832 5831 5830 5828 5826 5824 5822 5820 5817 5815 5813 5811 5808 5806 5803 5799 5796 5793 5791 5789 5786 5783 5780 5777 5774 5771 5768 5765 5762 5759 5755 5752 5749 5745 5741 5738 5734 5730
5831 5832 5833 5834 5835 5836 5837 5838 5838 5839 5840 5841 5841 5842 5842 5843 5844 5844 5844 5847 5848 5847 5847 5847 5847 5847 5847 5848 5848 5848 5847 5847 5848 5847 5847 5847 5846 5845 5845 5844 5842 5841 5841 5840 5839 5838 5837 5836 5834 5833 5832 5831 5830 5828 5826 5824 5822 5819 5817 5815 5813 5810 5808 5805 5801 5798 5795 5793 5790 5788 5785 5782 5779 5776 5773 5770 5767 5764 5761 5757 5754 5750 5747 5743 5739 5735 5731 5727
5835 5836 5837 5838 5839 5840 5840 5841 5842 5843 5843 5844 5845 5845 5845 5846 5846 5845 5846 5850 5851 5849 5850 5849 5849 5849 5850 5850 5850 5850 5848 5848 5848 5848 5848 5848 5847 5847 5846 5844 5843 5842 5841 5840 5840 5838 5836 5835 5835 5834 5832 5831 5830 5828 5826 5823 5821 5819 5817 5814 5812 5809 5807 5803 5800 5797 5794 5792 5789 5786 5784 5781 5778 5775 5772 5769 5766 5763 5760 5756 5752 5748 5744 5740 5736 5732 5728 5723
5839 5840 5841 5841 5842 5843 5844 5844 5845 5846 5847 5848 5848 5848 5848 5848 5848 5847 5849 5852 5853 5852 5852 5851 5851 5851 5851 5852 5852 5851 5849 5849 5849 5849 5849 5849 5849 5848 5847 5845 5844 5842 5841 5840 5839 5838 5836 5836 5835 5834 5833 5831 5830 5828 5826 5823 5821 5819 5816 5813 5811 5808 5805 5802 5799 5796 5794 5791 5789 5786 5783 5780 5777 5774 5771 5768 5765 5762 5758 5754 5749 5746 5742 5738 5733 5729 5725 5720
5842 5843 5844 5845 5845 5846 5847 5847 5848 5849 5850 5851 5851 5851 5851 5851 5851 5850 5852 5854 5855 5854 5854 5853 5853 5853 5853 5853 5853 5852 5850 5850 5850 5850 5850 5850 5849 5848 5847 5846 5844 5843 5841 5841 5840 5838 5837 5836 5836 5834 5833 5831 5830 5827 5825 5823 5821 5818 5815 5812 5810 5807 5804 5801 5798 5796 5793 5790 5787 5784 5782 5779 5776 5772 5769 5766 5763 5759 5755 5751 5747 5743 5739 5735 5730 5726 5722 5717
5845 5846 5847 5848 5848 5849 5850 5851 5851 5852 5853 5853 5854 5854 5854 5853 5853 5853 5854 5856 5856 5856 5856 5855 5854 5854 5854 5854 5853 5853 5852 5851 5851 5851 5851 5850 5849 5848 5847 5846 5845 5843 5842 5841 5840 5839 5838 5837 5836 5834 5833 5831 5829 5827 5824 5822 5819 5817 5814 5812 5809 5806 5804 5801 5798 5795 5792 5789 5786 5783 5780 5777 5774 5771 5768 5764 5760 5756 5752 5749 5745 5741 5736 5732 5728 5724 5719 5715
5848 5849 5850 5851 5851 5852 5853 5854 5854 5855 5855 5856 5856 5856 5856 5856 5856 5856 5857 5858 5858 5858 5857 5857 5856 5856 5855 5855 5854 5854 5853 5852 5852 5852 5851 5850 5849 5848 5847 5847 5845 5844 5842 5841 5840 5839 5838 5837 5835 5834 5832 5830 5828 5825 5823 5821 5819 5816 5814 5811 5808 5806 5803 5800 5797 5794 5791 5788 5785 5782 5779 5776 5773 5769 5766 5762 5758 5754 5750 5746 5742 5738 5734 5730 5726 5722 5717 5713
5851 5852 5853 5853 5854 5855 5856 5856 5857 5857 5858 5858 5858 5858 5858 5858 5858 5858 5859 5860 5860 5859 5858 5858 5857 5857 5856 5856 5855 5854 5853 5853 5852 5852 5851 5850 5849 5849 5848 5847 5846 5844 5843 5841 5840 5839 5838 5836 5835 5833 5831 5829 5827 5825 5823 5820 5818 5815 5813 5810 5808 5805 5802 5799 5796 5793 5790 5786 5783 5781 5778 5775 5772 5768 5765 5761 5757 5753 5748 5744 5740 5736 5732 5727 5723 5719 5715 5711
5855 5855 5856 5856 5857 5857 5858 5859 5859 5860 5860 5860 5860 5860 5860 5860 5860 5860 5860 5861 5861 5860 5859 5859 5858 5858 5857 5856 5856 5855 5854 5853 5853 5852 5851 5851 5850 5849 5848 5847 5846 5844 5843 5841 5840 5839 5837 5836 5834 5832 5830 5828 5826 5824 5822 5820 5817 5815 5812 5809 5806 5804 5800 5797 5794 5791 5788 5785 5781 5778 5776 5774 5770 5766 5762 5758 5755 5751 5747 5743 5738 5734 5730 5725 5721 5717 5712 5708
5857 5858 5858 5859 5859 5860 5860 5861 5861 5862 5862 5862 5862 5862 5862 5862 5862 5861 5862 5862 5862 5861 5860 5860 5859 5858 5857 5857 5856 5855 5854 5854 5853 5853 5852 5851 5850 5849 5848 5847 5846 5845 5843 5841 5840 5838 5837 5835 5833 5831 5829 5827 5825 5823 5821 5818 5816 5813 5811 5808 5805 5802 5799 5796 5792 5789 5787 5783 5780 5776 5772 5770 5767 5763 5760 5756 5752 5749 5745 5741 5736 5731 5727 5723 5718 5714 5710 5705
5860 5860 5861 5861 5861 5862 5862 5863 5864 5864 5864 5864 5864 5864 5864 5863 5863 5863 5863 5863 5863 5862 5862 5861 5860 5859 5858 5858 5857 5856 5855 5855 5854 5853 5852 5852 5851 5849 5848 5847 5846 5844 5843 5841 5839 5838 5836 5834 5832 5831 5829 5826 5824 5822 5820 5817 5815 5812 5809 5806 5804 5801 5797 5794 5791 5788 5785 5782 5779 5774 5770 5766 5763 5760 5756 5753 5749 5746 5742 5738 5734 5729 5725 5721 5716 5711 5707 5703
5862 5863 5863 5863 5864 5864 5865 5865 5865 5866 5866 5866 5866 5866 5865 5865 5865 5864 5864 5864 5864 5863 5863 5862 5861 5860 5860 5859 5858 5857 5856 5855 5854 5853 5853 5852 5851 5850 5848 5847 5846 5844 5842 5840 5839 5837 5835 5834 5832 5830 5827 5825 5823 5820 5818 5815 5813 5810 5807 5804 5801 5799 5796 5793 5790 5786 5783 5780 5776 5773 5768 5764 5761 5757 5753 5750 5746 5742 5739 5735 5731 5727 5723 5719 5714 5709 5704 5700
5865 5865 5865 5866 5866 5866 5867 5867 5867 5868 5868 5868 5868 5867 5867 5867 5866 5866 5865 5865 5865 5864 5864 5863 5862 5861 5861 5860 5858 5857 5856 5855 5855 5854 5853 5852 5851 5849 5848 5847 5845 5843 5841 5840 5838 5836 5834 5833 5831 5828 5826 5824 5821 5819 5816 5814 5811 5808 5805 5802 5799 5796 5793 5790 5788 5784 5781 5778 5774 5770 5766 5761 5759 5755 5751 5747 5743 5739 5736 5732 5728 5724 5720 5716 5711 5707 5702 5697
5867 5867 5868 5868 5868 5869 5869 5869 5869 5869 5869 5869 5869 5869 5869 5869 5868 5867 5867 5866 5866 5865 5864 5864 5863 5862 5861 5860 5859 5858 5857 5856 5855 5854 5853 5851 5850 5849 5847 5846 5844 5842 5841 5839 5837 5835 5833 5831 5829 5827 5825 5822 5820 5817 5815 5812 5809 5806 5803 5800 5797 5794 5791 5787 5785 5781 5779 5776 5772 5768 5764 5759 5755 5753 5749 5744 5741 5736 5733 5729 5725 5721 5717 5713 5708 5704 5699 5695
5869 5869 5870 5870 5870 5870 5871 5871 5871 5871 5871 5871 5871 5870 5870 5870 5869 5868 5868 5867 5867 5866 5865 5864 5864 5863 5862 5860 5859 5858 5857 5856 5855 5853 5852 5851 5849 5848 5846 5845 5843 5841 5839 5837 5836 5834 5832 5830 5828 5825 5823 5821 5818 5815 5813 5810 5807 5804 5801 5798 5795 5792 5788 5785 5782 5778 5775 5773 5770 5766 5762 5757 5752 5750 5746 5742 5738 5734 5730 5726 5722 5718 5714 5710 5705 5701 5696 5692
5871 5871 5872 5872 5872 5872 5872 5872 5872 5872 5872 5872 5872 5871 5871 5870 5870 5869 5869 5868 5867 5867 5866 5865 5864 5863 5862 5860 5859 5858 5857 5855 5854 5853 5851 5850 5849 5847 5845 5844 5842 5840 5838 5836 5834 5832 5830 5828 5826 5824 5821 5819 5816 5813 5810 5807 5805 5802 5799 5796 5793 5789 5786 5782 5779 5776 5772 5770 5767 5763 5759 5755 5751 5748 5743 5739 5735 5730 5726 5722 5718 5714 5710 5706 5702 5698 5694 5689
5873 5873 5873 5873 5874 5873 5873 5873 5873 5873 5873 5872 5872 5872 5871 5871 5870 5870 5869 5868 5867 5867 5866 5865 5864 5863 5861 5860 5859 5857 5856 5855 5853 5852 5850 5849 5847 5846 5844 5842 5840 5838 5836 5834 5832 5830 5828 5826 5823 5821 5819 5817 5814 5811 5808 5805 5802 5799 5796 5793 5790 5786 5783 5779 5776 5773 5769 5767 5765 5761 5756 5750 5748 5746 5741 5737 5732 5727 5723 5718 5714 5711 5707 5703 5699 5694 5690 5686
5874 5874 5874 5875 5875 5875 5874 5874 5874 5873 5873 5873 5872 5872 5871 5871 5870 5870 5869 5868 5867 5867 5866 5865 5863 5862 5861 5859 5858 5857 5855 5854 5852 5851 5849 5848 5846 5844 5842 5840 5838 5837 5835 5832 5830 5828 5826 5824 5821 5819 5817 5814 5812 5809 5806 5803 5800 5796 5793 5789 5786 5783 5780 5776 5772 5769 5765 5762 5761 5759 5755 5747 5742 5741 5738 5734 5730 5726 5721 5716 5711 5707 5704 5700 5696 5692 5688 5684
5875 5875 5875 5875 5875 5875 5875 5875 5874 5874 5874 5873 5873 5872 5872 5871 5871 5870 5869 5868 5867 5866 5865 5864 5863 5862 5860 5859 5857 5856 5854 5853 5851 5849 5848 5846 5844 5843 5841 5839 5837 5835 5833 5830 5828 5826 5824 5822 5819 5817 5814 5812 5810 5806 5803 5800 5797 5794 5790 5786 5783 5779 5776 5773 5769 5765 5761 5758 5755 5754 5754 5747 5738 5735 5733 5729 5726 5722 5719 5715 5710 5705 5701 5697 5694 5690 5686 5681
5876 5876 5876 5876 5876 5876 5875 5875 5875 5874 5874 5873 5873 5872 5872 5871 5870 5870 5869 5868 5867 5866 5864 5863 5862 5861 5859 5858 5856 5855 5853 5851 5850 5848 5846 5844 5843 5841 5839 5837 5835 5833 5830 5828 5826 5824 5822 5820 5817 5814 5811 5809 5807 5804 5801 5797 5794 5791 5787 5783 5780 5776 5773 5770 5767 5763 5757 5754 5750 5748 5749 5746 5736 5731 5729 5724 5721 5718 5714 5711 5707 5702 5699 5695 5691 5687 5683 5679
5877 5877 5876 5876 5876 5876 5876 5875 5875 5874 5874 5873 5873 5872 5871 5871 5870 5869 5868 5867 5866 5865 5863 5862 5861 5859 5858 5856 5855 5853 5852 5850 5848 5846 5844 5842 5840 5838 5836 5834 5832 5830 5828 5826 5824 5822 5819 5817 5815 5812 5809 5806 5803 5801 5798 5795 5791 5788 5785 5781 5777 5773 5769 5766 5764 5761 5756 5752 5748 5744 5744 5744 5736 5729 5726 5721 5717 5713 5709 5707 5704 5700 5696 5692 5688 5684 5679 5676
5877 5877 5877 5876 5876 5876 5875 5875 5874 5874 5873 5873 5872 5871 5871 5870 5869 5868 5867 5866 5864 5863 5862 5861 5859 5858 5856 5855 5853 5851 5850 5848 5846 5844 5842 5840 5838 5836 5834 5832 5830 5828 5826 5823 5821 5819 5817 5815 5813 5810 5807 5804 5801 5797 5795 5791 5788 5786 5782 5778 5774 5770 5766 5762 5760 5758 5754 5750 5746 5741 5740 5741 5735 5726 5722 5718 5714 5710 5705 5702 5700 5696 5692 5688 5685 5681 5676 5672
5877 5877 5876 5876 5875 5875 5875 5874 5874 5873 5872 5872 5871 5870 5869 5868 5867 5866 5865 5864 5863 5861 5860 5859 5857 5856 5854 5853 5851 5849 5847 5846 5844 5842 5840 5838 5836 5834 5831 5829 5827 5825 5823 5821 5818 5816 5814 5811 5809 5807 5805 5802 5799 5795 5792 5789 5786 5783 5779 5775 5771 5767 5763 5759 5756 5754 5751 5747 5742 5737 5735 5737 5733 5724 5719 5715 5711 5707 5702 5698 5695 5692 5688 5685 5682 5678 5674 5669
5877 5876 5876 5875 5875 5874 5874 5873 5872 5872 5871 5870 5869 5868 5867 5866 5865 5864 5863 5862 5861 5859 5858 5856 5855 5853 5852 5850 5848 5847 5845 5843 5841 5839 5837 5835 5833 5831 5829 5827 5824 5822 5820 5817 5815 5813 5810 5808 5805 5803 5801 5799 5797 5793 5789 5786 5783 5779 5776 5771 5767 5764 5759 5756 5753 5749 5746 5744 5739 5733 5730 5732 5731 5723 5716 5712 5707 5704 5700 5695 5690 5687 5684 5682 5679 5675 5670 5666
5876 5876 5875 5875 5874 5874 5873 5872 5872 5871 5870 5869 5868 5867 5866 5865 5864 5863 5862 5860 5859 5858 5856 5854 5853 5851 5850 5848 5846 5844 5842 5840 5838 5837 5835 5832 5830 5828 5826 5824 5821 5819 5817 5814 5812 5810 5807 5804 5801 5798 5795 5793 5791 5789 5785 5782 5779 5776 5772 5768 5764 5760 5755 5751 5748 5745 5741 5738 5736 5731 5724 5725 5728 5722 5714 5710 5705 5702 5699 5694 5689 5684 5680 5677 5674 5671 5667 5662
5876 5876 5875 5874 5874 5873 5872 5872 5871 5870 5869 5868 5867 5866 5865 5864 5862 5861 5860 5859 5857 5856 5854 5853 5851 5849 5848 5846 5844 5842 5840 5838 5836 5834 5832 5830 5828 5826 5823 5821 5818 5816 5813 5811 5808 5806 5804 5801 5798 5795 5793 5789 5786 5784 5780 5778 5776 5773 5769 5764 5760 5756 5752 5748 5744 5741 5736 5732 5732 5729 5720 5717 5721 5717 5712 5709 5704 5699 5696 5691 5687 5683 5677 5673 5670 5666 5662 5658
5875 5875 5874 5874 5873 5872 5871 5870 5870 5869 5868 5867 5866 5864 5863 5862 5861 5859 5858 5857 5855 5854 5852 5850 5849 5847 5845 5843 5841 5839 5837 5836 5833 5831 5829 5827 5825 5822 5820 5818 5815 5812 5810 5807 5804 5801 5799 5798 5795 5792 5790 5787 5783 5780 5776 5773 5772 5770 5766 5761 5756 5752 5748 5745 5741 5737 5732 5725 5725 5725 5718 5712 5712 5710 5705 5703 5699 5695 5692 5687 5683 5679 5673 5669 5666 5662 5658 5653
5874 5874 5873 5873 5872 5871 5870 5869 5868 5867 5866 5865 5864 5863 5862 5860 5859 5858 5856 5855 5853 5852 5850 5848 5846 5844 5842 5840 5839 5836 5835 5833 5831 5828 5826 5824 5822 5819 5817 5814 5811 5809 5806 5803 5800 5797 5794 5794 5791 5788 5787 5784 5779 5775 5772 5769 5767 5765 5761 5756 5751 5747 5744 5741 5738 5733 5727 5721 5718 5717 5714 5710 5707 5703 5700 5698 5693 5689 5686 5682 5678 5674 5669 5665 5662 5658 5654 5649
5873 5873 5872 5871 5870 5870 5869 5868 5867 5866 5865 5864 5862 5861 5860 5859 5857 5856 5854 5853 5851 5849 5848 5846 5844 5842 5840 5837 5835 5833 5831 5830 5827 5825 5823 5821 5818 5816 5813 5811 5808 5805 5802 5799 5796 5793 5789 5788 5786 5783 5783 5782 5776 5770 5766 5764 5761 5761 5757 5751 5745 5742 5740 5736 5733 5729 5723 5718 5714 5710 5707 5707 5704 5697 5694 5693 5689 5685 5681 5677 5674 5669 5664 5660 5658 5654 5650 5646
5872 5871 5871 5870 5869 5868 5867 5866 5865 5864 5863 5861 5860 5859 5858 5856 5855 5853 5852 5850 5848 5847 5845 5843 5841 5839 5836 5834 5832 5830 5828 5826 5823 5821 5819 5817 5814 5811 5809 5807 5804 5801 5798 5794 5791 5788 5783 5782 5780 5776 5776 5778 5773 5766 5761 5758 5756 5756 5753 5746 5739 5736 5734 5731 5729 5725 5719 5713 5709 5705 5701 5701 5700 5694 5690 5688 5684 5681 5678 5673 5670 5666 5659 5656 5654 5650 5646 5642
5870 5869 5869 5868 5867 5866 5865 5864 5862 5861 5860 5859 5857 5856 5855 5854 5852 5850 5848 5847 5845 5843 5841 5839 5837 5835 5832 5830 5828 5825 5823 5821 5819 5816 5814 5812 5809 5806 5803 5801 5798 5795 5792 5788 5785 5782 5777 5774 5772 5768 5768 5770 5768 5761 5757 5754 5751 5750 5746 5740 5734 5731 5729 5727 5724 5720 5715 5709 5703 5699 5696 5695 5693 5689 5686 5685 5681 5677 5674 5670 5666 5662 5657 5652 5649 5646 5642 5638
5868 5867 5866 5865 5864 5863 5862 5861 5860 5858 5857 5856 5854 5853 5851 5850 5848 5847 5844 5842 5841 5838 5836 5834 5832 5830 5828 5825 5823 5820 5818 5816 5813 5811 5809 5806 5803 5800 5797 5795 5792 5789 5786 5782 5779 5776 5772 5768 5765 5761 5759 5762 5761 5755 5751 5749 5747 5745 5740 5733 5728 5725 5723 5722 5720 5716 5711 5705 5697 5694 5692 5690 5686 5683 5680 5679 5678 5674 5670 5666 5661 5656 5652 5649 5645 5641 5637 5634